Location: Alta
(39.2070°N, 120.8111°W)
Time: 13:59:49
(UTC+00:00)

BlueWalker 3 - Visible Passes

Search period start: 01 December 2022 00:00
Search period end: 11 December 2022 00:00
Orbit: 500 x 519 km, 53.2° (Epoch: 01 December)

Date Brightness Start Highest point End Pass type
(mag) Time Alt. Az. Time Alt. Az. Time Alt. Az.
01 Dec 4.4 02:09:36 10° NNW 02:10:31 11° N 02:11:25 10° N visible
02 Dec 4.4 01:51:20 10° NNW 01:52:12 11° N 01:53:04 10° N visible
03 Dec 4.4 01:33:04 10° NNW 01:33:52 10° N 01:34:41 10° N visible
04 Dec 4.4 01:14:47 10° NNW 01:15:33 10° N 01:16:18 10° N visible
04 Dec 4.7 02:53:17 10° NNW 02:53:18 10° NNW 02:53:18 10° NNW visible
05 Dec 4.4 02:34:50 10° NNW 02:35:42 13° N 02:35:42 13° N visible
06 Dec 4.0 02:16:24 10° NNW 02:18:09 15° N 02:18:09 15° N visible
07 Dec 3.7 01:57:58 10° NNW 02:00:33 17° NNE 02:00:41 17° NNE visible
08 Dec 3.7 01:39:31 10° NNW 01:42:11 17° NNE 01:43:20 15° NE visible
08 Dec 4.7 03:17:29 10° NW 03:18:10 15° NW 03:18:10 15° NW visible
09 Dec 3.6 01:21:04 10° NNW 01:23:48 18° NNE 01:26:06 12° ENE visible
09 Dec 3.7 02:59:04 10° NW 03:00:58 27° NW 03:00:58 27° NW visible
10 Dec 2.2 02:40:39 10° NW 02:43:57 62° NW 02:43:57 62° NW visible
